Location: Cudham
(51.3000°N, 0.0667°E)
Time: 01:32:34
(UTC+00:00)

USA 229 DEB - Visible Passes

Search period start: 19 April 2026 00:00
Search period end: 29 April 2026 00:00
Orbit: 844 x 1364 km, 63.4° (Epoch: 10 January)

Date Brightness Start Highest point End Pass type
(mag) Time Alt. Az. Time Alt. Az. Time Alt. Az.
19 Apr 3.9 00:20:24 10° NW 00:27:48 90° WNW 00:31:13 39° SE visible
19 Apr 4.8 02:11:53 10° WNW 02:18:12 29° WSW 02:18:32 29° WSW visible
19 Apr 5.3 19:51:32 10° WNW 19:57:22 32° N 20:03:52 10° NE visible
19 Apr 5.2 21:43:51 10° NW 21:50:11 35° NNE 21:57:14 10° E visible
19 Apr 4.1 23:35:00 10° NW 23:42:18 70° NE 23:46:32 31° ESE visible
20 Apr 4.4 01:26:07 10° NW 01:33:05 42° WSW 01:33:53 41° SW visible
20 Apr 5.3 20:58:11 10° NW 21:04:15 32° N 21:11:00 10° ENE visible
20 Apr 4.5 22:49:35 10° NW 22:56:40 55° NE 23:02:00 22° ESE visible
21 Apr 4.1 00:40:33 10° NW 00:47:51 58° SW 00:49:20 51° SSW visible
21 Apr 5.5 02:33:24 10° WNW 02:36:41 15° W 02:36:41 15° W visible
21 Apr 5.3 20:12:24 10° WNW 20:18:18 31° N 20:24:52 10° ENE visible
21 Apr 4.8 22:04:09 10° NW 22:10:56 45° NNE 22:17:33 14° E visible
21 Apr 3.9 23:55:05 10° NW 00:02:30 78° SW 00:04:54 50° SSE visible
22 Apr 5.1 01:46:53 10° WNW 01:52:16 24° WSW 01:52:16 24° WSW visible
22 Apr 5.0 21:18:39 10° NW 21:25:08 38° NNE 21:32:21 10° E visible
22 Apr 4.0 23:09:41 10° NW 23:17:03 80° NE 23:20:33 38° SE visible
23 Apr 4.7 01:00:58 10° NW 01:07:38 34° WSW 01:07:55 34° WSW visible
23 Apr 5.2 20:33:02 10° NW 20:39:14 34° NNE 20:46:07 10° ENE visible
23 Apr 4.3 22:24:17 10° NW 22:31:29 63° NE 22:36:15 26° ESE visible
24 Apr 4.3 00:15:18 10° NW 00:22:28 49° WSW 00:23:37 46° SW visible
24 Apr 5.8 02:09:24 10° W 02:11:00 12° W 02:11:00 12° W visible
24 Apr 5.3 19:47:19 10° NW 19:53:17 31° N 19:59:56 10° ENE visible
24 Apr 4.6 21:38:52 10° NW 21:45:49 50° NNE 21:52:01 16° E visible
24 Apr 4.0 23:29:48 10° NW 23:37:11 67° SW 23:39:23 49° S visible
25 Apr 5.4 01:22:02 10° WNW 01:26:46 19° WSW 01:26:46 19° WSW visible
25 Apr 4.9 20:53:24 10° NW 21:00:03 41° NNE 21:07:28 10° E visible
25 Apr 3.9 22:44:22 10° NW 22:51:47 89° SW 22:55:12 39° SE visible
26 Apr 5.0 00:35:53 10° WNW 00:42:08 28° WSW 00:42:34 28° WSW visible
26 Apr 5.1 20:07:50 10° NW 20:14:11 36° NNE 20:21:16 10° E visible
26 Apr 4.1 21:58:58 10° NW 22:06:17 72° NE 22:11:03 27° ESE visible
26 Apr 4.5 23:50:07 10° NW 23:57:02 41° WSW 23:58:26 38° SW visible
27 Apr 4.4 21:13:34 10° NW 21:20:40 56° NE 21:26:57 17° ESE visible
27 Apr 4.2 23:04:32 10° NW 23:11:49 57° SW 23:14:20 42° S visible
28 Apr 5.7 00:57:29 10° WNW 01:01:31 15° WSW 01:01:43 15° WSW visible
28 Apr 4.7 20:28:07 10° NW 20:34:56 45° NNE 20:42:32 10° E visible
28 Apr 4.0 22:19:04 10° NW 22:26:29 77° SW 22:30:16 35° SSE visible
